Location: Home
(42.5358°N, 72.7383°W)
Time: 01:35:48
(UTC-05:00)

Vanguard 1 Rocket - Pass Details

Date: 30 November 2021
Orbit: 651 x 4224 km, 34.3° (Epoch: 23 January)

Event Time Altitude Azimuth Distance (km) Brightness Sun altitude
Exits shadow 05:36:43 12° 260° (W) 5,028 10.6 -15.0°
Maximum altitude 05:52:54 67° 183° (S) 3,818 10.5 -12.2°
Drops below altitude 10° 06:18:40 10° 108° (ESE) 7,401 13.8 -7.7°
Sets 06:24:20 0° 106° (ESE) 8,313 14.7 -6.8°
